Time,TemperatureF,DewpointF,PressureIn,WindDirection,WindDirectionDegrees,WindSpeedMPH,WindSpeedGustMPH,Humidity,HourlyPrecipIn,Conditions,Clouds,dailyrainin,SoftwareType,DateUTC
2013-05-26 04:32:00,45.0,43.0,-100.00,West,280,4.0,7.0,93,-99.99,,,0.00,,2013-05-26 10:32:00,
2013-05-26 04:42:00,45.0,43.0,-100.00,West,280,4.0,7.0,93,-99.99,,,0.00,,2013-05-26 10:42:00,
2013-05-26 04:52:00,45.0,43.0,-100.00,West,280,4.0,7.0,93,-99.99,,,0.00,,2013-05-26 10:52:00,
2013-05-26 05:11:00,45.0,43.0,-100.00,West,270,6.0,8.0,91,-99.99,,,0.00,,2013-05-26 11:11:00,
2013-05-26 05:22:00,45.0,43.0,-100.00,West,270,6.0,8.0,91,-99.99,,,0.00,,2013-05-26 11:22:00,
2013-05-26 05:32:00,44.0,42.0,-100.00,West,280,6.0,8.0,93,-99.99,,,0.00,,2013-05-26 11:32:00,
2013-05-26 05:42:00,44.0,42.0,-100.00,West,280,6.0,8.0,93,-99.99,,,0.00,,2013-05-26 11:42:00,
2013-05-26 05:52:00,44.0,42.0,-100.00,West,280,6.0,8.0,93,-99.99,,,0.00,,2013-05-26 11:52:00,
2013-05-26 06:11:00,42.0,42.0,-100.00,West,275,6.0,8.0,97,-99.99,,,0.00,,2013-05-26 12:11:00,
2013-05-26 06:21:00,42.0,42.0,-100.00,West,275,6.0,8.0,97,-99.99,,,0.00,,2013-05-26 12:21:00,
2013-05-26 06:32:00,42.0,41.0,-100.00,WSW,255,2.0,3.0,98,-99.99,,,0.00,,2013-05-26 12:32:00,
2013-05-26 06:42:00,42.0,41.0,-100.00,WSW,255,2.0,3.0,98,-99.99,,,0.00,,2013-05-26 12:42:00,
2013-05-26 06:52:00,42.0,41.0,-100.00,WSW,255,2.0,3.0,98,-99.99,,,0.00,,2013-05-26 12:52:00,
2013-05-26 07:11:00,43.0,43.0,-100.00,NW,305,2.0,2.0,97,-99.99,,,0.00,,2013-05-26 13:11:00,
2013-05-26 07:21:00,43.0,43.0,-100.00,NW,305,2.0,2.0,97,-99.99,,,0.00,,2013-05-26 13:21:00,
2013-05-26 07:32:00,46.0,44.0,-100.00,WNW,300,1.0,4.0,92,-99.99,,,0.00,,2013-05-26 13:32:00,
2013-05-26 07:42:00,46.0,44.0,-100.00,WNW,300,1.0,4.0,92,-99.99,,,0.00,,2013-05-26 13:42:00,
2013-05-26 07:52:00,46.0,44.0,-100.00,WNW,300,1.0,4.0,92,-99.99,,,0.00,,2013-05-26 13:52:00,
2013-05-26 08:11:00,49.0,44.0,-100.00,WNW,290,1.0,3.0,81,-99.99,,,0.00,,2013-05-26 14:11:00,
2013-05-26 08:21:00,49.0,44.0,-100.00,WNW,290,1.0,3.0,81,-99.99,,,0.00,,2013-05-26 14:21:00,
2013-05-26 08:32:00,52.0,43.0,-100.00,WNW,290,1.0,4.0,71,-99.99,,,0.00,,2013-05-26 14:32:00,
2013-05-26 08:41:00,52.0,43.0,-100.00,WNW,290,1.0,4.0,71,-99.99,,,0.00,,2013-05-26 14:41:00,
2013-05-26 08:51:00,52.0,43.0,-100.00,WNW,290,1.0,4.0,71,-99.99,,,0.00,,2013-05-26 14:51:00,
2013-05-26 09:12:00,55.0,42.0,-100.00,ENE,65,4.0,6.0,62,-99.99,,,0.00,,2013-05-26 15:12:00,
2013-05-26 09:22:00,55.0,42.0,-100.00,ENE,65,4.0,6.0,62,-99.99,,,0.00,,2013-05-26 15:22:00,
2013-05-26 09:33:00,58.0,42.0,-100.00,ESE,105,6.0,9.0,55,-99.99,,,0.00,,2013-05-26 15:33:00,
2013-05-26 09:43:00,58.0,42.0,-100.00,ESE,105,6.0,9.0,55,-99.99,,,0.00,,2013-05-26 15:43:00,
2013-05-26 09:53:00,58.0,42.0,-100.00,ESE,105,6.0,9.0,55,-99.99,,,0.00,,2013-05-26 15:53:00,
2013-05-26 10:12:00,59.0,41.0,-100.00,East,100,11.0,16.0,51,-99.99,,,0.00,,2013-05-26 16:12:00,
2013-05-26 10:23:00,59.0,41.0,-100.00,East,100,11.0,16.0,51,-99.99,,,0.00,,2013-05-26 16:23:00,
2013-05-26 10:33:00,60.0,42.0,-100.00,ENE,75,14.0,19.0,52,-99.99,,,0.00,,2013-05-26 16:33:00,
2013-05-26 10:42:00,60.0,42.0,-100.00,ENE,75,14.0,19.0,52,-99.99,,,0.00,,2013-05-26 16:42:00,
2013-05-26 10:52:00,60.0,42.0,-100.00,ENE,75,14.0,19.0,52,-99.99,,,0.00,,2013-05-26 16:52:00,
2013-05-26 11:11:00,61.0,43.0,-100.00,ENE,65,12.0,20.0,51,-99.99,,,0.00,,2013-05-26 17:11:00,
2013-05-26 11:22:00,61.0,43.0,-100.00,ENE,65,12.0,20.0,51,-99.99,,,0.00,,2013-05-26 17:22:00,
2013-05-26 11:32:00,61.0,43.0,-100.00,ENE,70,11.0,17.0,51,-99.99,,,0.00,,2013-05-26 17:32:00,
2013-05-26 11:42:00,61.0,43.0,-100.00,ENE,70,11.0,17.0,51,-99.99,,,0.00,,2013-05-26 17:42:00,
2013-05-26 11:52:00,61.0,43.0,-100.00,ENE,70,11.0,17.0,51,-99.99,,,0.00,,2013-05-26 17:52:00,
2013-05-26 12:12:00,62.0,45.0,-100.00,ENE,75,11.0,19.0,52,-99.99,,,0.00,,2013-05-26 18:12:00,
2013-05-26 12:21:00,62.0,45.0,-100.00,ENE,75,11.0,19.0,52,-99.99,,,0.00,,2013-05-26 18:21:00,
2013-05-26 12:31:00,62.0,45.0,-100.00,NE,55,12.0,17.0,53,-99.99,,,-99.99,,2013-05-26 18:31:00,
2013-05-26 12:42:00,62.0,45.0,-100.00,NE,55,12.0,17.0,53,-99.99,,,-99.99,,2013-05-26 18:42:00,
2013-05-26 12:52:00,62.0,45.0,-100.00,NE,55,12.0,17.0,53,-99.99,,,-99.99,,2013-05-26 18:52:00,
2013-05-26 13:11:00,65.0,47.0,-100.00,East,80,11.0,18.0,51,-99.99,,,0.00,,2013-05-26 19:11:00,
2013-05-26 13:21:00,65.0,47.0,-100.00,East,80,11.0,18.0,51,-99.99,,,0.00,,2013-05-26 19:21:00,
2013-05-26 13:32:00,66.0,47.0,-100.00,East,80,12.0,17.0,50,-99.99,,,0.00,,2013-05-26 19:32:00,
2013-05-26 13:42:00,66.0,47.0,-100.00,East,80,12.0,17.0,50,-99.99,,,0.00,,2013-05-26 19:42:00,
2013-05-26 13:52:00,66.0,47.0,-100.00,East,80,12.0,17.0,50,-99.99,,,0.00,,2013-05-26 19:52:00,
2013-05-26 14:11:00,65.0,48.0,-100.00,ENE,65,12.0,17.0,54,-99.99,,,-99.99,,2013-05-26 20:11:00,
2013-05-26 14:21:00,65.0,48.0,-100.00,ENE,65,12.0,17.0,54,-99.99,,,-99.99,,2013-05-26 20:21:00,
2013-05-26 14:32:00,61.0,48.0,-100.00,ENE,70,8.0,14.0,63,-99.99,,,-99.99,,2013-05-26 20:32:00,
2013-05-26 14:41:00,61.0,48.0,-100.00,ENE,70,8.0,14.0,63,-99.99,,,-99.99,,2013-05-26 20:41:00,
2013-05-26 14:52:00,61.0,48.0,-100.00,ENE,70,8.0,14.0,63,-99.99,,,-99.99,,2013-05-26 20:52:00,
2013-05-26 15:11:00,57.0,50.0,-100.00,North,355,0.0,9.0,76,-99.99,,,0.00,,2013-05-26 21:11:00,
2013-05-26 15:22:00,57.0,50.0,-100.00,North,355,0.0,9.0,76,-99.99,,,0.00,,2013-05-26 21:22:00,
2013-05-26 15:33:00,54.0,52.0,-100.00,NNE,25,4.0,11.0,92,-99.99,,,0.00,,2013-05-26 21:33:00,
2013-05-26 15:53:00,54.0,52.0,-100.00,NNE,25,4.0,11.0,92,-99.99,,,0.00,,2013-05-26 21:53:00,
2013-05-26 16:12:00,63.0,56.0,-100.00,South,190,0.0,4.0,78,-99.99,,,0.00,,2013-05-26 22:12:00,
2013-05-26 16:23:00,63.0,56.0,-100.00,South,190,0.0,4.0,78,-99.99,,,0.00,,2013-05-26 22:23:00,
2013-05-26 16:33:00,66.0,51.0,-100.00,West,265,4.0,8.0,58,-99.99,,,0.00,,2013-05-26 22:33:00,
2013-05-26 16:42:00,66.0,51.0,-100.00,West,265,4.0,8.0,58,-99.99,,,0.00,,2013-05-26 22:42:00,
2013-05-26 16:53:00,66.0,51.0,-100.00,West,265,4.0,8.0,58,-99.99,,,0.00,,2013-05-26 22:53:00,
2013-05-26 17:11:00,66.0,48.0,-100.00,SSW,210,3.0,10.0,53,-99.99,,,0.00,,2013-05-26 23:11:00,
2013-05-26 17:22:00,66.0,48.0,-100.00,SSW,210,3.0,10.0,53,-99.99,,,0.00,,2013-05-26 23:22:00,
2013-05-26 17:32:00,60.0,51.0,-100.00,West,270,6.0,13.0,72,-99.99,,,0.00,,2013-05-26 23:32:00,
2013-05-26 17:43:00,60.0,51.0,-100.00,West,270,6.0,13.0,72,-99.99,,,0.00,,2013-05-26 23:43:00,
2013-05-26 18:11:00,58.0,52.0,-100.00,SW,235,1.0,8.0,81,-99.99,,,0.00,,2013-05-27 00:11:00,
2013-05-26 18:21:00,58.0,52.0,-100.00,SW,235,1.0,8.0,81,-99.99,,,0.00,,2013-05-27 00:21:00,